Cloud_Cover
0 0 5 5 10 24 100 100 100 91 87 42 61 100 100 100 100 98 100 100 100 100 92 100 87 79 88 100 100 100 100 85 89 98 100 100 18 0 0 0 0 0 1
0 3 4 15 9 48 100 14 64 57 74 58 100 100 100 97 98 100 100 100 100 33 15 83 100 100 100 100 83 99 100 100 100 100 33 5 0 0 0 4 0 0 0
24 63 15 38 51 80 93 98 100 99 92 98 100 100 100 100 88 100 94 80 28 79 90 65 96 100 100 100 100 100 100 100 87 43 3 0 5 0 0 1 5 0 2
50 6 37 51 52 90 100 100 100 96 100 100 100 100 100 100 100 97 64 90 82 45 68 100 100 100 100 100 98 23 3 2 1 5 5 3 5 2 5 5 5 5 0
17 87 82 63 100 100 100 94 100 97 89 100 100 100 100 100 95 72 100 78 15 45 99 100 100 83 9 5 5 0 0 5 5 5 5 4 5 5 11 5 5 5 5
66 5 46 85 100 100 100 100 100 100 100 100 100 100 100 100 100 90 86 22 64 63 45 89 82 65 5 5 5 1 5 5 5 45 5 5 5 5 5 14 22 98 94
8 64 21 93 100 100 100 100 100 100 100 100 100 100 100 100 100 98 19 5 5 77 97 87 74 5 75 99 15 5 5 5 5 5 5 5 5 5 31 88 97 100 100
5 36 94 95 100 100 100 100 100 100 100 100 100 100 100 100 99 21 72 58 15 69 77 70 93 64 39 50 5 5 5 5 5 5 3 5 5 5 10 72 96 73 26
70 96 100 100 100 100 100 100 100 100 100 100 100 100 100 72 35 100 53 5 85 27 89 99 82 30 5 5 5 5 5 5 5 5 5 5 5 5 5 5 5 96 93
95 100 100 100 100 100 100 100 100 100 100 100 100 87 66 100 100 35 4 5 5 59 99 89 99 48 5 5 5 5 5 5 5 5 5 5 5 5 5 5 5 100 100
100 100 100 100 100 100 100 100 100 100 100 100 78 100 100 100 45 5 5 5 5 46 97 84 62 89 5 5 5 5 5 6 12 6 5 5 12 6 5 5 5 5 99
100 100 100 91 84 98 100 100 100 100 100 100 100 100 100 42 45 4 5 5 5 77 39 32 84 98 28 22 5 5 5 5 5 78 94 58 35 18 5 5 5 5 11
96 99 98 95 100 100 100 100 100 94 100 85 100 99 38 52 7 5 5 5 14 76 86 38 91 100 98 100 75 53 16 5 19 91 29 6 5 5 9 5 5 5 5
33 9 71 97 71 19 72 46 74 99 83 100 97 8 47 5 5 5 6 52 89 93 46 70 73 100 100 100 81 70 77 28 25 24 18 21 8 34 85 7 58 5 38
5 8 5 5 5 9 86 98 95 99 100 100 43 23 5 5 5 5 56 8 7 11 95 100 100 100 100 100 75 93 96 94 78 67 56 21 5 75 60 47 46 40 78
5 5 5 5 10 88 99 100 100 100 100 100 80 100 71 28 57 82 58 81 5 6 100 84 98 100 100 100 100 91 88 72 43 11 5 5 18 96 53 54 62 82 97
17 37 31 85 100 100 100 100 90 100 100 100 53 5 98 65 79 100 100 100 59 52 100 100 93 95 100 100 100 100 92 94 69 54 12 9 93 94 74 69 70 78 74
38 50 100 100 100 100 96 72 95 66 46 6 23 20 5 20 73 98 96 95 63 100 100 100 100 88 100 100 100 100 100 100 91 64 52 90 100 100 77 74 62 97 100
100 100 100 99 86 41 62 92 94 96 99 95 36 5 5 5 41 85 100 100 94 100 100 100 100 97 100 100 100 100 100 100 94 89 83 66 100 100 96 72 68 58 97
100 100 100 99 95 96 98 100 99 88 99 100 100 100 69 71 96 86 100 98 82 100 100 100 89 86 100 100 100 100 100 100 100 99 66 61 98 100 94 71 76 93 83
100 95 32 74 95 56 72 100 100 100 100 100 100 100 100 100 100 100 98 100 99 100 100 100 87 100 100 100 100 100 100 100 100 100 96 84 98 97 100 54 53 73 89
43 100 35 5 73 100 100 100 100 100 100 100 90 100 100 99 100 97 98 100 100 100 100 100 100 100 100 100 100 100 100 100 100 100 100 87 92 100 100 100 81 82 67
94 81 7 18 96 100 100 100 100 100 100 100 100 100 100 100 100 100 100 100 100 100 100 100 97 99 100 100 100 100 100 100 100 100 100 100 99 90 100 88 98 86 77
89 61 56 60 100 99 100 100 100 100 100 100 100 100 100 100 100 100 100 100 100 100 97 99 100 100 100 100 100 100 100 100 100 100 100 100 100 100 99 98 96 78 69
77 76 77 88 100 100 100 100 99 100 100 100 100 100 100 100 100 100 100 100 100 100 100 98 100 95 100 100 100 100 100 100 100 100 100 100 100 100 100 98 99 100 98
43 44 84 90 96 81 93 100 100 100 100 100 100 100 100 100 100 100 100 100 100 100 100 100 94 84 100 100 100 100 100 100 100 100 100 100 100 100 100 100 100 95 100